Temp
-10 -10 -10 -10 -10 -10 -10 -10 -10 -10 -10 -10 -10 -10 -10 -10 -10 -10 -10 -10 -10 -10 -10 -10 -10 -10 -10 -10 -10 -11 -11 -11
-11 -11 -11 -11 -11 -10 -10 -10 -10 -10 -10 -10 -10 -10 -10 -10 -11 -10 -10 -10 -10 -10 -10 -10 -10 -10 -10 -10 -10 -10 -11 -11
-12 -11 -11 -11 -11 -11 -11 -11 -10 -10 -10 -10 -10 -10 -10 -11 -11 -11 -11 -10 -10 -10 -10 -11 -10 -10 -10 -10 -10 -10 -11 -11
-11 -11 -11 -12 -12 -12 -12 -12 -11 -11 -11 -10 -11 -10 -10 -11 -11 -11 -11 -11 -10 -10 -11 -10 -10 -11 -10 -10 -10 -10 -10 -11
-12 -12 -12 -12 -12 -12 -12 -11 -11 -11 -11 -11 -11 -11 -11 -11 -11 -11 -11 -11 -11 -11 -11 -11 -11 -11 -11 -11 -10 -10 -10 -10
-12 -12 -12 -11 -12 -12 -12 -12 -12 -12 -12 -12 -12 -11 -11 -11 -11 -11 -11 -11 -11 -11 -11 -11 -11 -11 -11 -11 -11 -11 -11 -11
-12 -12 -12 -11 -11 -11 -12 -11 -12 -12 -12 -12 -11 -11 -12 -12 -11 -11 -11 -11 -11 -11 -11 -11 -11 -11 -11 -12 -12 -12 -12 -12
-12 -12 -12 -12 -12 -11 -12 -12 -12 -12 -12 -12 -12 -12 -12 -11 -11 -11 -11 -11 -11 -11 -11 -11 -11 -11 -12 -12 -12 -12 -11 -11
-12 -11 -11 -11 -11 -11 -11 -11 -11 -11 -11 -11 -11 -11 -11 -11 -11 -11 -11 -11 -11 -10 -11 -11 -11 -11 -11 -12 -12 -12 -11 -11
-13 -13 -12 -12 -12 -12 -12 -12 -12 -11 -11 -11 -11 -11 -11 -11 -11 -11 -11 -11 -11 -11 -11 -11 -11 -11 -11 -12 -12 -12 -12 -12
-13 -13 -12 -12 -12 -12 -12 -12 -12 -12 -12 -12 -11 -11 -11 -11 -11 -11 -11 -11 -11 -11 -11 -11 -11 -11 -11 -11 -12 -11 -11 -11
-12 -12 -12 -12 -12 -12 -12 -12 -12 -12 -11 -11 -11 -11 -11 -11 -11 -11 -11 -11 -11 -11 -10 -10 -10 -11 -11 -11 -11 -12 -12 -12
-12 -12 -12 -12 -12 -12 -12 -12 -12 -12 -12 -11 -11 -11 -11 -11 -11 -11 -11 -11 -11 -11 -10 -10 -11 -11 -11 -11 -11 -11 -12 -12
-13 -13 -13 -13 -12 -12 -12 -12 -12 -12 -12 -13 -12 -12 -12 -11 -12 -12 -12 -12 -12 -12 -12 -12 -11 -12 -12 -12 -12 -12 -12 -12
-13 -13 -13 -13 -13 -13 -12 -12 -12 -12 -12 -12 -12 -12 -12 -12 -12 -12 -12 -12 -12 -12 -12 -12 -11 -11 -12 -11 -11 -11 -11 -12
-13 -12 -13 -13 -13 -12 -12 -12 -12 -12 -12 -12 -12 -12 -12 -11 -11 -11 -11 -11 -11 -11 -11 -11 -11 -11 -12 -12 -12 -12 -12 -11
-14 -14 -13 -13 -13 -13 -12 -12 -12 -12 -12 -12 -12 -12 -12 -12 -12 -12 -11 -11 -11 -10 -11 -12 -12 -12 -12 -12 -13 -13 -14 -13
-13 -13 -14 -14 -14 -13 -13 -12 -12 -13 -12 -12 -12 -13 -13 -12 -12 -12 -12 -12 -12 -12 -11 -12 -12 -12 -13 -14 -15 -15 -15 -15
-14 -14 -14 -14 -13 -13 -13 -13 -13 -12 -12 -12 -13 -13 -12 -11 -11 -11 -11 -12 -12 -12 -12 -12 -12 -14 -16 -18 -18 -16 -16 -18
-13 -14 -14 -14 -14 -14 -14 -14 -14 -13 -13 -12 -12 -11 -12 -12 -12 -12 -13 -13 -14 -15 -16 -18 -20 -23 -23 -23 -21 -20 -18 -18
Height
5868 5868 5868 5869 5869 5868 5868 5867 5866 5866 5865 5865 5864 5864 5863 5861 5861 5861 5860 5860 5859 5857 5857 5856 5855 5854 5854 5854 5856 5856 5853 5851
5865 5865 5865 5865 5865 5864 5864 5863 5862 5861 5860 5860 5859 5859 5859 5858 5857 5857 5856 5856 5854 5853 5853 5852 5851 5849 5849 5848 5850 5851 5850 5849
5862 5862 5861 5861 5860 5859 5859 5857 5857 5856 5855 5854 5854 5853 5852 5853 5852 5852 5851 5850 5849 5848 5848 5847 5846 5845 5843 5842 5844 5845 5847 5845
5857 5856 5857 5857 5856 5855 5853 5852 5851 5850 5849 5848 5847 5847 5846 5846 5846 5846 5846 5844 5843 5842 5842 5842 5841 5839 5838 5837 5837 5838 5840 5840
5850 5849 5851 5852 5849 5849 5847 5846 5845 5844 5843 5843 5842 5841 5840 5839 5839 5839 5839 5838 5838 5837 5836 5836 5836 5835 5833 5831 5830 5829 5832 5834
5846 5844 5842 5845 5843 5842 5840 5839 5840 5839 5837 5837 5836 5835 5834 5832 5832 5831 5832 5832 5833 5831 5830 5829 5829 5829 5828 5827 5825 5823 5823 5827
5839 5839 5837 5838 5839 5835 5834 5834 5833 5831 5830 5830 5830 5828 5827 5826 5826 5825 5824 5824 5824 5825 5824 5823 5822 5821 5821 5819 5817 5816 5816 5817
5831 5831 5830 5829 5829 5829 5827 5827 5826 5825 5824 5822 5822 5820 5819 5818 5817 5816 5816 5814 5815 5815 5815 5814 5813 5810 5810 5808 5807 5807 5807 5808
5826 5826 5825 5823 5822 5821 5820 5817 5816 5815 5815 5814 5814 5811 5810 5809 5807 5806 5806 5806 5805 5805 5804 5803 5803 5802 5801 5799 5799 5799 5798 5798
5820 5818 5816 5815 5813 5811 5811 5809 5808 5806 5804 5804 5803 5802 5801 5799 5798 5797 5796 5795 5794 5794 5793 5792 5791 5790 5788 5788 5788 5788 5790 5789
5815 5813 5811 5809 5807 5806 5804 5802 5800 5798 5797 5795 5793 5792 5790 5790 5789 5787 5786 5784 5782 5781 5780 5778 5777 5776 5775 5774 5774 5774 5776 5777
5810 5807 5805 5803 5800 5797 5796 5794 5792 5790 5788 5786 5785 5783 5781 5779 5777 5775 5773 5772 5770 5768 5767 5765 5763 5761 5761 5762 5762 5762 5762 5763
5803 5801 5799 5796 5793 5790 5787 5785 5784 5781 5779 5775 5772 5770 5768 5765 5763 5762 5761 5759 5756 5753 5751 5748 5746 5743 5742 5741 5745 5748 5748 5747
5793 5790 5788 5786 5784 5780 5779 5778 5774 5772 5768 5765 5761 5757 5753 5750 5748 5746 5744 5741 5739 5737 5735 5733 5732 5728 5724 5721 5722 5724 5728 5730
5782 5780 5777 5775 5770 5768 5767 5765 5763 5760 5757 5754 5751 5747 5744 5740 5736 5732 5729 5726 5724 5720 5716 5713 5712 5711 5703 5701 5702 5703 5701 5705
5772 5769 5766 5762 5759 5756 5755 5752 5750 5747 5744 5740 5736 5731 5727 5723 5719 5715 5712 5708 5704 5700 5695 5691 5687 5686 5681 5673 5672 5677 5676 5682
5761 5758 5754 5750 5746 5743 5740 5736 5733 5729 5726 5721 5717 5711 5707 5704 5700 5696 5691 5686 5681 5677 5671 5667 5661 5657 5652 5648 5641 5643 5647 5647
5749 5745 5741 5736 5731 5728 5726 5721 5716 5713 5709 5705 5699 5694 5689 5683 5678 5674 5668 5661 5654 5647 5640 5634 5629 5623 5617 5615 5613 5612 5614 5613
5736 5731 5727 5721 5718 5716 5712 5709 5705 5700 5696 5691 5684 5674 5667 5659 5651 5643 5637 5630 5623 5617 5609 5601 5594 5588 5582 5579 5578 5580 5581 5584
5720 5716 5712 5709 5706 5702 5697 5692 5687 5680 5674 5667 5660 5653 5644 5637 5631 5624 5615 5607 5598 5589 5582 5573 5567 5560 5556 5550 5546 5545 5547 5548
Wind_Speed
15 16 18 20 22 22 21 21 21 21 21 21 22 23 21 19 18 20 22 23 22 21 21 21 24 26 26 24 22 19 21 21
18 18 18 19 21 23 24 24 24 23 23 24 24 26 26 25 21 20 23 25 25 25 24 23 24 28 29 29 26 23 22 22
23 22 22 22 21 22 24 25 27 27 27 27 27 27 27 28 26 25 25 25 27 28 27 26 24 27 28 29 27 27 25 24
24 25 24 24 25 26 26 28 28 32 30 29 29 28 29 30 30 29 29 28 28 29 29 27 23 26 29 30 30 28 27 26
26 27 28 26 29 29 30 33 33 33 33 32 29 31 31 33 34 34 33 34 32 32 33 32 29 29 30 31 31 32 29 29
26 28 29 28 29 30 31 30 30 31 34 33 32 33 37 37 38 39 38 38 37 37 36 37 34 33 34 34 36 36 36 35
25 26 28 26 24 29 30 30 31 33 35 37 37 41 38 40 41 41 42 41 40 41 41 41 39 39 40 39 38 40 40 37
28 27 29 29 28 28 30 31 33 36 36 38 38 40 43 42 41 42 42 43 43 43 43 44 46 46 45 43 44 42 44 40
30 32 33 33 33 33 34 36 37 36 36 37 37 39 40 43 43 43 44 45 46 48 48 48 49 49 48 48 47 46 46 47
34 37 38 37 37 37 37 37 39 40 41 40 40 41 43 43 45 46 48 50 51 51 52 51 50 50 49 50 48 50 48 50
39 40 39 39 40 40 40 41 41 42 42 43 45 45 46 47 48 50 51 52 52 53 53 54 56 55 54 53 54 55 53 54
41 42 39 40 41 42 43 44 43 44 46 47 47 48 49 49 51 52 53 55 57 59 60 62 63 66 65 63 62 60 60 59
38 39 40 38 39 43 44 44 45 47 49 51 51 52 55 58 59 60 62 63 63 65 67 68 70 71 72 74 73 69 66 67
36 37 39 41 43 45 47 47 48 51 54 56 59 61 62 63 65 65 66 67 67 67 69 72 73 74 76 77 79 78 72 67
35 39 43 44 46 47 49 52 54 54 55 58 60 62 64 65 66 68 69 71 72 74 76 78 79 80 82 84 84 84 83 81
42 45 45 47 50 52 52 53 54 55 57 59 61 64 66 68 70 73 75 78 80 83 86 88 88 88 86 84 88 86 82 82
43 44 47 51 55 56 56 59 60 61 62 64 65 68 71 73 76 77 80 83 87 91 92 94 94 95 95 93 86 88 82 84
46 48 53 57 60 59 60 64 67 67 67 69 71 72 73 76 79 83 86 90 94 98 102 104 104 101 97 88 90 93 93 89
49 51 57 62 64 63 66 67 66 66 69 72 74 75 80 85 90 94 97 100 102 105 106 104 103 99 92 82 84 98 105 104
53 61 63 64 65 66 65 66 69 71 73 77 80 83 87 90 93 94 95 92 87 85 85 83 68 54 55 58 68 90 97 104
Wind_Direction
259 262 267 270 271 273 274 272 271 274 276 280 290 288 281 280 280 281 278 279 283 288 289 292 297 299 300 303 309 320 325 327
279 282 283 278 276 274 272 273 275 274 276 281 283 285 284 278 280 280 281 281 280 281 284 286 291 293 294 295 301 306 314 316
279 280 278 280 282 280 279 278 278 277 277 280 280 280 282 282 280 280 275 274 277 278 279 285 288 286 289 293 297 301 306 308
273 274 278 282 281 282 279 276 278 279 277 277 279 278 277 279 281 282 278 272 270 273 277 279 280 281 285 289 294 297 300 302
267 271 268 271 274 271 272 275 273 278 280 275 277 278 274 275 279 280 278 276 274 276 280 284 279 278 281 283 286 291 294 295
262 268 271 271 272 272 273 276 272 272 274 277 277 278 280 279 280 281 282 280 279 280 283 284 282 279 281 284 288 291 291 298
261 262 267 267 264 269 276 277 276 273 277 278 277 277 285 288 285 284 284 283 279 279 281 282 281 281 281 280 280 286 291 293
273 265 261 264 263 264 266 269 271 273 275 275 277 278 280 285 285 283 283 282 279 280 277 278 281 282 280 283 285 287 289 290
267 270 271 266 265 264 266 270 272 271 270 271 270 270 270 275 278 279 279 279 279 279 279 281 280 279 277 276 279 280 281 283
271 271 271 273 274 275 275 275 278 278 277 275 272 269 271 272 275 277 279 279 280 279 277 274 272 272 274 276 274 275 278 281
276 277 279 280 280 280 280 281 280 281 281 280 280 279 278 278 278 279 279 279 277 277 278 279 280 278 277 276 276 276 275 277
273 276 278 279 279 280 282 283 282 282 284 286 286 284 284 282 280 278 278 278 279 280 281 281 281 282 280 277 277 276 276 275
265 268 270 272 278 281 279 281 285 286 286 284 283 283 283 283 282 282 281 280 280 280 281 282 284 283 282 282 280 278 277 276
266 265 266 271 277 278 277 277 279 281 283 285 287 287 286 286 286 287 287 287 286 285 284 284 284 285 286 285 283 282 282 277
261 268 274 279 279 278 277 280 281 282 281 281 281 281 280 281 282 282 283 286 287 287 286 285 283 284 285 281 280 279 279 280
269 272 276 276 279 279 279 280 281 281 280 282 285 286 287 288 289 288 288 287 287 287 288 288 290 289 289 285 284 282 278 274
268 270 272 278 281 282 285 287 289 290 290 290 291 293 293 292 290 289 288 286 284 284 288 291 292 291 288 284 273 274 264 265
273 276 279 281 283 284 286 287 290 291 292 293 294 294 293 294 294 294 296 297 298 298 297 296 293 290 286 276 264 253 252 245
276 280 279 279 282 284 284 284 285 288 289 292 293 297 298 299 299 300 301 303 303 301 298 295 291 286 282 274 259 251 248 247
273 276 278 281 283 284 287 292 292 295 296 295 295 297 301 303 305 306 306 305 301 297 291 289 291 289 286 281 268 253 250 251